星链-30939 (STARLINK-30939 )

导读

STARLINK-30939是美国太空探索技术公司SpaceX星链互联网卫星星座的一员,于2023年11月20日发射入轨。星链项目旨在构建全球卫星互联网通信网络,该卫星入轨后承担全球范围低延迟、高速率的互联网接入服务,为偏远地区、海上以及航空场景提供网络覆盖,增强星链星座的服务能力。

Basic Information
目录编号:
58393
目录名称:
STARLINK-30939
国际标识:
2023-178V
轨道中心:
EARTH
卫星名称:
星链-30939
卫星全名:
星链-30939 (STARLINK-30939 )
卫星状态:
在轨 (已飞行1026 天)
发射日期:
2023-11-20 UTC
国别 :
美国 (US)
星等 :
--
This satellite is enrolled in the Space Conjunction Data Service (SCDS) and the current flight risk assessment level is: No High Risk
Orbit Information
数据来源 国际轨道数据 AOE轨道数据
星历时间 2026-09-11T14:41:56+0800
7小时前
查看轨道信息
2026-09-09T22:00:00+0800
2天前
查看轨道信息
半长轴 6840.882km 6840.862km
偏心率 0.0001343 0.0004029
轨道倾角 53.158° 53.156°
近地点辐角 92.642° 140.048°
升交点赤经 214.940° 222.866°
平近点角 267.474° 207.663°
近地点 461.826km 459.968km
远地点 463.664km 465.482km
周期 93.849分钟 93.848分钟
每日圈数 15.343861 15.34393
Detailed Information
固有亮度:
5
最大亮度:
0.3
卫星平台:
Starlink v2.0 mini
覆盖范围:
全球
运营商:
太空探索技术公司
运营商所在国:
美国
制造商(研发单位):
太空探索技术公司
制造商所在国:
美国
使用方式:
暂无
Satellite Introduction
星链(Starlink)计划是由太空探索技术公司(SpaceX)提出的一个巨型低轨卫星互联网星座项目,计划在2019年至2024年间在太空搭建由约1.2万颗卫星组成的“星链”网络,其中1584颗将部署在地球上空550千米处的近地轨道,并从2020年开始工作。该卫星仍在工作。
2D Orbit Map
3D Orbit Map
Orbit Altitude Analysis Chart
Orbit Inclination Analysis Chart
Orbit Comprehensive Analysis Chart
View Comprehensive Chart
Conjunction Data List
Event ID Objects TCA Miss Dist (km) Collision Risk Probability Collision Risk Index (CRI) Action
CDM_260913-113105-839306-805721
2026-09-13T
11:31:24+0000
0.758 km
远距离
3.198136E-5 中风险 0.65
CDM_260913-165905-839306-805721
2026-09-13T
16:59:40+0000
1.114 km
极远距离
8.704699E-6 低风险 0.54
CDM_260913-002705-839306-827521
2026-09-13T
00:27:33+0000
2.142 km
极远距离
1.161065E-6 低风险 0.36
CDM_260912-203305-839306-827521
2026-09-12T
20:33:05+0000
2.176 km
极远距离
1.123579E-6 低风险 0.36
CDM_260912-220605-839306-827521
2026-09-12T
22:06:52+0000
2.410 km
极远距离
9.251018E-7 极低风险 0.34
CDM_260913-020105-839306-827521
2026-09-13T
02:01:21+0000
2.413 km
极远距离
9.223941E-7 极低风险 0.34
CDM_260912-155605-420705-839321
2026-09-12T
15:56:27+0000
2.451 km
极远距离
5.896992E-7 极低风险 0.3
Miss Distance Evolution Trend with All Objects
Collision Probability Evolution Trend with All Objects